Flight Track Log - Related Links

Times and Time Zones

All times are in EDT time to prevent confusion due to time zone crossing. See the SWA560 flight status page for this flight to view local times or setup timezone preferences in your user account.

Time Position Orientation Groundspeed Altitude Reporting Facility
EDT Latitude Longitude Course Direction KTS MPH feet Rate Location/Type
Fri 11:57:19 AM 33.6467 -117.8872 195° South 154 177 1,300  Level Los Angeles Center
Fri 11:58:21 AM 33.6056 -117.9003 195° South 151 174 3,100 1,935 Climbing Los Angeles Center
Fri 11:59:23 AM 33.5447 -117.9244 198° South 220 253 5,300 2,855 Climbing Los Angeles Center
Fri 12:00:25 PM 33.4867 -117.9817 219° Southwest 273 314 9,000 3,216 Climbing Los Angeles Center
Fri 12:01:28 PM 33.4583 -118.0983 254° West 301 346 12,000 2,928 Climbing Los Angeles Center
Fri 12:02:30 PM 33.4303 -118.2083 253° West 332 382 15,100 2,806 Climbing Los Angeles Center
Fri 12:03:32 PM 33.4672 -118.3136 293° West 366 421 17,800 2,710 Climbing Los Angeles Center
Fri 12:04:34 PM 33.5375 -118.4094 311° West 380 437 20,700 2,952 Climbing Los Angeles Center
Fri 12:05:36 PM 33.6108 -118.5144 310° West 390 449 23,900 2,710 Climbing Los Angeles Center
Fri 12:06:38 PM 33.6792 -118.6100 311° West 382 440 26,300 1,984 Climbing Los Angeles Center
Fri 12:07:40 PM 33.7536 -118.7122 311° West 389 448 28,000 1,632 Climbing Los Angeles Center
Fri 12:08:43 PM 33.8308 -118.8178 311° West 405 466 29,700 2,256 Climbing Los Angeles Center
Fri 12:09:45 PM 33.9244 -118.9433 312° West 416 479 32,700 2,468 Climbing Los Angeles Center
Fri 12:10:47 PM 33.9947 -119.0478 309° West 410 472 34,800 1,887 Climbing Los Angeles Center
Fri 12:11:49 PM 34.0678 -119.1481 311° West 405 466 36,600 1,887 Climbing Los Angeles Center
Fri 12:12:51 PM 34.1372 -119.2456 311° West 394 453 38,700 1,645 Climbing Los Angeles Center
Fri 12:13:53 PM 34.2044 -119.3378 311° West 380 437 40,000 624 Climbing Los Angeles Center
Fri 12:14:56 PM 34.2706 -119.4314 311° West 371 427 40,000  Level Los Angeles Center
Fri 12:15:58 PM 34.3508 -119.5447 311° West 371 427 40,000  Level Los Angeles Center
Fri 12:17:00 PM 34.4181 -119.6392 311° West 371 427 40,000  Level Los Angeles Center
Fri 12:18:02 PM 34.4858 -119.7358 310° West 372 428 40,000  Level Los Angeles Center
Fri 12:19:04 PM 34.5714 -119.8214 321° Northwest 396 456 40,000  Level Los Angeles Center
Fri 12:20:07 PM 34.6642 -119.8992 325° Northwest 406 467 40,000  Level Los Angeles Center
Fri 12:21:09 PM 34.7572 -119.9758 326° Northwest 404 465 40,000  Level Los Angeles Center
Fri 12:22:11 PM 34.8686 -120.0678 326° Northwest 403 464 40,000  Level Los Angeles Center
Fri 12:23:13 PM 34.9544 -120.1403 325° Northwest 402 463 40,000  Level Los Angeles Center
Fri 12:24:15 PM 35.0447 -120.2158 326° Northwest 399 459 40,000  Level Los Angeles Center
Fri 12:25:17 PM 35.1544 -120.3069 326° Northwest 396 456 40,000  Level Los Angeles Center
Fri 12:26:19 PM 35.2447 -120.3853 325° Northwest 402 463 40,000  Level Los Angeles Center
Fri 12:27:22 PM 35.3344 -120.4597 326° Northwest 397 457 40,000  Level Los Angeles Center
Fri 12:28:24 PM 35.4250 -120.5356 326° Northwest 408 470 40,000  Level Los Angeles Center
Fri 12:29:26 PM 35.5131 -120.6117 325° Northwest 394 453 40,000  Level Los Angeles Center
Fri 12:30:28 PM 35.6217 -120.7025 326° Northwest 394 453 40,000 -823 Level Los Angeles Center
Fri 12:31:30 PM 35.7103 -120.7797 325° Northwest 394 453 38,300 -2,177 Descending Los Angeles Center
Fri 12:32:32 PM 35.7994 -120.8567 325° Northwest 393 452 35,500 -2,832 Descending Los Angeles Center
Fri 12:33:35 PM 35.8906 -120.9353 325° Northwest 394 453 32,400 -2,723 Descending Los Angeles Center
Fri 12:34:42 PM 36.0014 -121.0281 326° Northwest 398 458 29,600 -2,372 Descending Oakland Center
Fri 12:35:44 PM 36.0908 -121.1044 325° Northwest 395 455 27,300 -2,177 Descending Oakland Center
Fri 12:36:46 PM 36.1789 -121.1814 325° Northwest 391 450 25,100 -2,146 Descending Oakland Center
Fri 12:37:47 PM 36.2639 -121.2556 325° Northwest 380 437 22,900 -2,098 Descending Oakland Center
Fri 12:38:49 PM 36.3469 -121.3275 325° Northwest 369 425 20,800 -2,177 Descending Oakland Center
Fri 12:39:51 PM 36.4419 -121.4100 325° Northwest 352 405 18,400 -2,195 Descending Oakland Center
Fri 12:40:52 PM 36.5197 -121.4783 325° Northwest 344 396 16,300 -2,000 Descending Oakland Center
Fri 12:41:54 PM 36.5992 -121.5456 326° Northwest 345 397 14,300 -1,935 Descending Oakland Center
Fri 12:42:56 PM 36.6761 -121.6136 325° Northwest 345 397 12,300 -1,887 Descending Oakland Center
Fri 12:43:58 PM 36.7608 -121.6611 336° Northwest 336 387 10,400 -1,306 Descending Oakland Center
Fri 12:45:00 PM 36.8517 -121.6533 North 292 336 9,600 -1,073 Descending Oakland Center
Fri 12:46:01 PM 36.9222 -121.6411 North 282 325 8,200 -1,366 Descending Oakland Center
Fri 12:47:03 PM 36.9750 -121.7075 315° West 273 314 6,800 -1,065 Descending Oakland Center
Fri 12:48:05 PM 37.0297 -121.7683 318° Northwest 269 310 6,000 -435 Descending Oakland Center
Fri 12:49:07 PM 37.0844 -121.8294 318° Northwest 268 308 5,900 -97 Descending Oakland Center
Fri 12:50:09 PM 37.1414 -121.8867 321° Northwest 267 307 5,800 -439 Descending Oakland Center
Fri 12:51:10 PM 37.2078 -121.9231 336° Northwest 260 299 5,000 -537 Descending Oakland Center
Fri 12:52:12 PM 37.2861 -121.9714 334° Northwest 260 299 4,700 -677 Descending Oakland Center
Fri 12:53:14 PM 37.3456 -122.0217 326° Northwest 257 296 3,600 -800 Descending Oakland Center
Fri 12:54:12 PM 37.3833 -122.0667 317° Northwest 197 227 3,100 -605 Descending Northern Cal TRACON
Fri 12:55:13 PM 37.4333 -122.0500 15° North 189 217 2,400 -694 Descending Northern Cal TRACON
Fri 12:56:13 PM 37.4333 -122.0000 90° East 186 214 1,700 -842 Descending Northern Cal TRACON
Fri 12:57:07 PM 37.4000 -121.9667 142° Southeast 145 167 800 -1,000 Descending Northern Cal TRACON

Login

Don't have an account? Register now (free) for customized features, flight alerts, and more!